{"data":{"norad_id":66767,"intl_designator":"2025-276DF","name":"ACCENTURE-1","alt_names":[],"object_type":"PAYLOAD","status":"ACTIVE","operator":null,"country":"UK","launch_date":"2025-11-28","launch_site_code":"AFWTR","launch_vehicle":null,"mission":null,"orbit_class":"UNKNOWN","rcs_meters":null,"size_class":null,"mass_kg":null,"dimensions":null,"purposes":[],"wikipedia_slug":null,"has_3d_model":false,"image_url":null,"decayed_at":null,"tle_current":{"epoch":"2026-05-25T03:44:57.103008Z","epoch_age_seconds":51729,"freshness":"FRESH","line1":"1 66767U 25276DF  26145.15621647  .00003322  00000+0  15842-3 0  9996","line2":"2 66767  97.4166 219.1544 0001105 104.4677 255.6681 15.19780591 26938","mean_motion":15.19780591,"eccentricity":0.0001105,"inclination_deg":97.4166,"raan_deg":219.1544,"arg_perigee_deg":104.4677,"mean_anomaly_deg":255.6681,"bstar":0.00015842,"rev_number":2693,"period_min":94.750519155696,"perigee_km":505.74239975709,"apogee_km":507.26390523079,"semimajor_km":6884.6401524939,"source":"CELESTRAK","updated_at":"2026-05-25T13:38:06.475594Z"}}}